Regional Weather Roundup
Issued by NWS San Diego, CA

Home | Current Version | Previous Version | Text Only | Print | Product List | Glossary On
Versions: 1 2 3 4 5 6 7 8 9 10 11 12 13 14 15 16 17 18 19 20 21 22 23 24 25 26 27 28 29 30 31 32 33 34 35 36 37 38 39 40 41 42 43 44 45 46 47 48 49 50
000
ASUS46 KSGX 251911
RWRSGX

SAN DIEGO HOURLY WEATHER ROUNDUP
NATIONAL WEATHER SERVICE SAN DIEGO CA
1200 PM PDT THU MAY 25 2017

NOTE: "FAIR" INDICATES FEW OR NO CLOUDS BELOW 12,000 FEET WITH NO
SIGNIFICANT WEATHER AND/OR OBSTRUCTIONS TO VISIBILITY.

CAZ042-043-060-061-PZZ750-775-252000-

GREATER SAN DIEGO AREA

CITY           SKY/WX    TMP DP  RH WIND       PRES   REMARKS
SAN DIEGO AP   CLOUDY    65  51  60 W8        29.92S
NATIONAL CITY    N/A     66  54  66 CALM      29.91R
CHULA VISTA      N/A     66  54  66 W5        29.83R
IMPERIAL BEACH CLOUDY    64  49  57 SW8       29.92R
BROWN FIELD    CLOUDY    64  49  57 W7        29.90S
MIRAMAR MCAS   CLOUDY    67  48  50 VRB7      29.90S
MONTGOMERY FLD CLOUDY    64  48  56 MISG      29.91R

$$

NORTH SAN DIEGO COUNTY

CITY           SKY/WX    TMP DP  RH WIND       PRES   REMARKS
CAMP PENDLETON PTSUNNY   65  50  58 VRB6      29.90S
OCEANSIDE AP   CLOUDY    67  51  56 W12       29.90R
OCEANSIDE HBR    N/A     63  53  70 CALM      29.93S
VISTA            N/A     62  52  67 CALM      29.88R
CARLSBAD       CLOUDY    62  50  64 W8        29.90R
DEL MAR          N/A     64  54  69 W1        29.93R
LA JOLLA SCRIP   N/A     61  54  77 W3        29.91R
FALLBROOK        N/A     65  54  67 S2          N/A
ESCONDIDO        N/A     67  51  56 CALM      29.91R
SAN MARCOS       N/A     62  51  66 W9        29.92R
POWAY            N/A     65  52  62 CALM      29.92R

$$

EAST SAN DIEGO COUNTY

CITY           SKY/WX    TMP DP  RH WIND       PRES   REMARKS
RAMONA         MOSUNNY   66  49  54 W7        29.90R
SANTEE LAKES     N/A     67  52  59 SE9       29.89S
LA MESA          N/A     65  50  58 CALM      29.83S
JAMUL            N/A     66  52  60 CALM      29.89R
DESCANSO N       N/A     60  49  67 SW12      29.79R
CAMPO            N/A     63  46  54 SW14      29.85R

$$

ORANGE COUNTY AND THE LOS ANGELES BASIN

CITY           SKY/WX    TMP DP  RH WIND       PRES   REMARKS
JOHN WAYNE AP  CLOUDY    64  51  62 SW8       29.90S
LAGUNA BEACH     N/A     64  54  69 SE3       29.86R
LAKE FOREST FR   N/A     63  47  55 W2        29.79R
HUNTINGTON BCH   N/A     64  54  70 CALM      29.92R
LOS ALAMITOS   CLOUDY    64  50  60 SW7       29.90R
FULLERTON      CLOUDY    64  50  60 VRB5      29.89R
LONG BEACH     CLOUDY    64  46  52 S7        29.90R
L.A. AP        CLOUDY    63  52  67 SW10      29.90R
L.A. DOWNTOWN  CLOUDY    65  51  60 CALM      29.89R

$$

THE INLAND EMPIRE

CITY           SKY/WX    TMP DP  RH WIND       PRES   REMARKS
CORONA         CLOUDY    68  50  52 W12G17    29.89R
CHINO          PTSUNNY   69  47  45 W7        29.89S
ONTARIO        PTSUNNY   67  47  48 W8        29.88R
SAN BERNARDINO MOSUNNY   72  46  40 W9        29.87S HAZE
RIVERSIDE AP   MOSUNNY   69  49  48 NW8       29.87S
MORENO VALLEY    N/A     68  53  58 CALM      28.01S
MARCH ARB      SUNNY     66  47  49 NE3       29.87S
HORSETHIEF CYN   N/A     68  46  44 E3        29.85S
PERRIS           N/A     64  51  62 S6        29.89R
FRENCH VALLEY  NOT AVBL
TEMECULA         N/A     63  52  68 SW8       29.93S

$$

SAN BERNARDINO AND RIVERSIDE COUNTY MOUNTAINS

CITY           SKY/WX    TMP DP  RH WIND       PRES   REMARKS
BIG BEAR AP    SUNNY     66   7   9 MISG      29.97R
ANGELUS OAKS     N/A     66  43  44 CALM      29.64S
PINE COVE        N/A     65  25  22 W1        29.70S

$$

SOUTHERN DESERT INCLUDING THE COACHELLA VALLEY

CITY           SKY/WX    TMP DP  RH WIND       PRES   REMARKS
PALM SPRINGS   SUNNY     90  37  15 NW15G23   29.64R
PALM DESERT      N/A     92  36  14 CALM      28.86R
THERMAL        SUNNY     93  30  10 VRB7      29.58S
BLYTHE         SUNNY     98   0   2 S18       29.60S
IMPERIAL AP    LGT RAIN  94  21   7 SE10      29.61S
EL CENTRO NAS  MOSUNNY   93  15   6 SE12      29.63S
YUMA AZ        PTSUNNY   93  21   7 S16       29.64
MEXICALI       MOSUNNY   93  32  11 SE14      29.63

$$

UPPER DESERT

CITY           SKY/WX    TMP DP  RH WIND       PRES   REMARKS
VICTORVILLE AP MOSUNNY   79  32  18 S17       29.76S
HESPERIA         N/A     72  33  23 SW21      29.78R
PALMDALE       SUNNY     75  32  20 SW26G35   29.76S
LANCASTER      SUNNY     67  41  38 SW29G39   29.76S
EDWARDS AFB    MOSUNNY   76  30  18 SW29      29.71R
DAGGETT        SUNNY     90  14   6 W22G31    29.66S
29 PALMS N     MOSUNNY   92  -5   2 VRB5      29.72S

$$

REGIONAL REPORTS

CITY           SKY/WX    TMP DP  RH WIND       PRES   REMARKS
SANTA BARBARA  CLOUDY    61  51  70 SE7       29.89S
SANDBERG       SUNNY     54  44  69 SW20G28   29.88R
LAS VEGAS NV   MOSUNNY   94  16   6 S13G24    29.54F
PHOENIX AZ     PTSUNNY   94  10   4 W6        29.68S
TIJUANA        PTSUNNY   64  46  52 W6        29.93
ENSENADA NW      N/A     66  32  28 NW2       29.89S

$$

OFFSHORE ISLANDS

CITY           SKY/WX    TMP DP  RH WIND       PRES   REMARKS
CATALINA ARPT  CLOUDY    56  48  74 W7        29.91R
SAN CLEMENTE I CLOUDY    63  50  62 SW9       29.92S
SAN NICOLAS IS CLOUDY    63  51  65 VRB6      29.89S

$$

MARINE AND OFFSHORE BUOY REPORTS

STATION/POSITION SKY/WX   TEMP    WIND        PRES    VSBY  SWELL
                          AIR SEA DIR/SP/G                  HT/PER/DIR
                          (F)     (DEG/KT/KT) (MB)    (MI)  (FT/S/D)
TANNER BANKS               60 59  180/  8/  8 1012.2R         5/270/13
S CLEMENTE BASIN           61 63  280/  2/  2 1013.0R         3/260/13
SAN NICOLAS IS.               59                N/A           7/290/12
SO. S. ROSA ISLA           57 57  130/  4/  6 1011.9R         5/290/11
W. S. BARBARA CH           55 55  130/  8/ 12 1011.9R
S. MONICA BASIN            60 63  200/  4/  6 1012.3R         2/230/14
S PEDRO CHANNEL               63                N/A           2/270/13
CMP PENDLETON NS              61                N/A           2/210/14
OCEANSIDE OFFSHR              63                N/A           2/200/14
TORREY PINES OTR              65                N/A           2/220/13
SAN DIEGO BAY                 67              1013.1R
POINT LOMA SOUTH              64                N/A           3/210/13

$$





USA.gov is the U.S. government's official web portal to all federal, state and local government web resources and services.